星链-35771(STARLINK-35771)

导读

STARLINK-35771是美国于2025年12月17日发射的星链系列卫星,属于SpaceX打造的星链星座组网卫星。星链项目旨在构建全球卫星互联网星座,为全球偏远地区、海洋等地面网络覆盖盲区提供低成本宽带互联网接入服务,该卫星入轨后将进一步扩充星链星座规模,提升全球网络服务覆盖能力与稳定性。

基本信息
目录编号:
67171
目录名称:
STARLINK-35771
国际标识:
2025-303J
轨道中心:
EARTH
卫星名称:
星链-35771
卫星全名:
星链-35771(STARLINK-35771)
卫星状态:
在轨 (已飞行261 天)
发射日期:
2025-12-17 UTC
国别 :
美国 (US)
星等 :
--
轨道信息
数据来源 国际轨道数据
星历时间: 2026-09-04T02:04:04+0800
15小时前
查看轨道信息
半长轴: 6861.112km
偏心率: 0.000165
轨道倾角: 43.002°
近地点辐角 266.181°
升交点赤经 25.454°
平近点角 93.885°
近地点: 481.842km
远地点: 484.108km
周期: 94.265分钟
每日圈数: 15.27605
详细信息
固有亮度:
5
最大亮度:
2.5
卫星平台:
Starlink V1.0
覆盖范围:
全球
运营商:
太空探索技术公司
运营商所在国:
美国
制造商(研发单位):
太空探索技术公司
制造商所在国:
美国
使用方式:
暂无
卫星简介
Starlink 计划是 SpaceX 推出的全球卫星互联网项目,通过发射低轨道卫星,为全球尤其是偏远地区提供高速、低延迟的互联网服务。自 2019 年起,Starlink 已部署数千颗卫星,旨在缩小全球数字鸿沟,推动互联网普及。该项目还为军事、航空等行业提供通信支持,带来广泛经济效益。
2D轨道图
3D轨道图
轨道高度分析图
轨道倾角分析图
轨道综合分析图
查看轨道综合分析图